Date String (YYYY-MM-DD hh:mm:ss) UTC,Instrument flags,Ambient pressure (hPa),Sample flow (lpm),Bypass flow (lpm),Sample temperature (°C),Ambient temperature (°C),ASC tube jacket temperature (°C),LED temperature (°C),Box temperature (°C),Sample RH (%),Span deviation,Mass concentration (μg/m³),Mass concentration (μg/m³),Mass concentration (μg/m³)
DateTimeUTC,F1_M11,P_M11,Q1_M11,Q2_M11,T1_M11,T2_M11,T3_M11,T4_M11,T5_M11,U1_M11,ZSPAN_M11,X0_M11,X2_M11,X1_M11
2021-08-24 00:00:00,,0824.3,5.00,0.00,28.8,25.5,00.0,37.9,30.2,22.9,0000.0,0007.56,0004.01,0003.68
2021-08-24 00:01:00,,0824.3,5.01,0.00,28.8,25.9,00.0,37.9,30.3,22.9,0000.0,0008.13,0004.00,0003.68
2021-08-24 00:02:00,,0824.3,4.99,0.00,28.7,26.4,00.0,37.9,30.4,22.3,0000.0,0008.38,0004.04,0003.69
2021-08-24 00:03:00,,0824.3,5.01,0.00,28.8,26.9,00.0,37.9,30.6,23.4,0000.0,0008.40,0004.05,0003.69
2021-08-24 00:04:00,,0824.3,5.00,0.00,28.8,27.3,00.0,37.9,30.7,24.1,0000.0,0008.39,0004.04,0003.70
2021-08-24 00:05:00,,0824.3,5.00,0.00,28.9,27.7,00.0,37.9,30.8,24.2,0000.0,0009.00,0004.07,0003.70
2021-08-24 00:06:00,,0824.3,5.00,0.00,29.0,27.9,00.0,37.9,30.9,23.6,0000.0,0009.32,0004.13,0003.71
2021-08-24 00:07:00,,0824.3,5.01,0.00,29.0,26.9,00.0,37.9,30.6,23.6,0000.0,0009.46,0004.18,0003.72
2021-08-24 00:08:00,,0824.2,5.00,0.00,28.8,25.6,00.0,37.9,30.3,23.5,0000.0,0009.07,0004.18,0003.72
2021-08-24 00:09:00,,0824.2,5.00,0.00,28.7,25.7,00.0,37.9,30.2,23.7,0000.0,0009.34,0004.18,0003.72
2021-08-24 00:10:00,,0824.2,5.01,0.00,28.7,26.1,00.0,37.9,30.3,24.0,0000.0,0009.59,0004.18,0003.72
2021-08-24 00:11:00,,0824.2,4.99,0.00,28.7,26.6,00.0,37.8,30.5,24.0,0000.0,0009.90,0004.17,0003.71
2021-08-24 00:12:00,,0824.2,5.01,0.00,28.8,27.1,00.0,37.8,30.6,23.5,0000.0,0009.38,0004.18,0003.72
2021-08-24 00:13:00,,0824.2,5.00,0.00,28.8,27.5,00.0,37.9,30.8,23.6,0000.0,0009.46,0004.20,0003.72
2021-08-24 00:14:00,,0824.2,5.00,0.00,28.9,27.8,00.0,37.9,30.9,23.0,0000.0,0010.09,0004.22,0003.73
2021-08-24 00:15:00,,0824.2,4.98,0.00,29.0,28.1,00.0,37.9,31.0,23.2,0000.0,0010.65,0004.22,0003.74
2021-08-24 00:16:00,,0824.2,5.02,0.00,29.0,27.9,00.0,37.9,30.9,23.2,0000.0,0010.27,0004.24,0003.74
2021-08-24 00:17:00,,0824.2,5.00,0.00,29.0,26.3,00.0,37.9,30.5,23.8,0000.0,0010.08,0004.21,0003.76
2021-08-24 00:18:00,,0824.2,5.00,0.00,28.8,25.5,00.0,37.9,30.3,24.0,0000.0,0010.16,0004.20,0003.76
2021-08-24 00:19:00,,0824.2,5.00,0.00,28.8,25.9,00.0,37.9,30.4,23.7,0000.0,0010.09,0004.19,0003.76
2021-08-24 00:20:00,,0824.3,5.01,0.00,28.8,26.3,00.0,37.9,30.4,25.2,0000.0,0009.75,0004.20,0003.77
2021-08-24 00:21:00,,0824.2,4.99,0.00,28.8,26.8,00.0,37.9,30.5,24.4,0000.0,0011.37,0004.24,0003.78
2021-08-24 00:22:00,,0824.2,5.01,0.00,28.8,27.3,00.0,37.9,30.7,24.2,0000.0,0011.20,0004.27,0003.79
2021-08-24 00:23:00,,0824.2,5.01,0.00,28.9,27.7,00.0,37.9,30.8,24.0,0000.0,0011.21,0004.27,0003.79
2021-08-24 00:24:00,,0824.5,4.99,0.00,29.0,28.0,00.0,37.9,30.9,24.1,0000.0,0011.02,0004.26,0003.79
2021-08-24 00:25:00,,0824.5,5.01,0.00,29.0,27.9,00.0,37.9,30.9,24.5,0000.0,0010.41,0004.25,0003.79
2021-08-24 00:26:00,,0824.3,5.00,0.00,28.9,26.4,00.0,37.9,30.4,24.7,0000.0,0010.06,0004.27,0003.80
2021-08-24 00:27:00,,0824.3,5.01,0.00,28.8,25.5,00.0,37.9,30.2,24.5,0000.0,0010.36,0004.26,0003.81
2021-08-24 00:28:00,,0824.3,5.00,0.00,28.7,25.8,00.0,37.9,30.3,24.5,0000.0,0010.44,0004.27,0003.80
2021-08-24 00:29:00,,0824.2,5.00,0.00,28.7,26.3,00.0,37.9,30.4,24.1,0000.0,0010.23,0004.26,0003.79
2021-08-24 00:30:00,,0824.3,5.00,0.00,28.7,26.8,00.0,37.9,30.5,24.2,0000.0,0010.17,0004.25,0003.80
2021-08-24 00:31:00,,0824.2,4.98,0.00,28.8,27.2,00.0,37.9,30.6,24.0,0000.0,0010.01,0004.23,0003.80
2021-08-24 00:32:00,,0824.2,5.01,0.00,28.9,27.6,00.0,37.9,30.8,24.3,0000.0,0008.30,0004.20,0003.81
2021-08-24 00:33:00,,0824.2,5.00,0.00,28.9,27.9,00.0,37.9,30.9,24.6,0000.0,0007.94,0004.19,0003.83
2021-08-24 00:34:00,,0824.2,5.01,0.00,29.0,28.2,00.0,37.9,31.0,23.6,0000.0,0008.19,0004.22,0003.85
2021-08-24 00:35:00,,0824.2,4.99,0.00,29.1,28.2,00.0,38.0,31.0,22.9,0000.0,0008.25,0004.23,0003.87
2021-08-24 00:36:00,,0824.2,5.00,0.00,29.0,26.7,00.0,38.0,30.6,23.9,0000.0,0008.36,0004.27,0003.89
2021-08-24 00:37:00,,0824.2,4.99,0.00,28.9,25.6,00.0,37.9,30.2,24.1,0000.0,0008.31,0004.29,0003.91
2021-08-24 00:38:00,,0824.3,5.01,0.00,28.8,25.8,00.0,37.9,30.3,24.6,0000.0,0007.82,0004.31,0003.92
2021-08-24 00:39:00,,0824.3,4.99,0.00,28.8,26.3,00.0,37.9,30.4,24.6,0000.0,0007.77,0004.32,0003.94
2021-08-24 00:40:00,,0824.2,5.01,0.00,28.8,26.7,00.0,37.9,30.5,25.2,0000.0,0008.06,0004.36,0003.96
2021-08-24 00:41:00,,0824.3,4.99,0.00,28.8,27.2,00.0,37.9,30.7,25.0,0000.0,0008.23,0004.42,0003.97
2021-08-24 00:42:00,,0824.2,5.01,0.00,28.9,27.6,00.0,37.9,30.8,25.6,0000.0,0008.33,0004.45,0003.99
2021-08-24 00:43:00,,0824.4,5.01,0.00,29.0,27.9,00.0,37.9,30.9,25.7,0000.0,0008.25,0004.46,0003.99
2021-08-24 00:44:00,,0824.3,4.99,0.00,29.0,28.2,00.0,38.0,31.0,25.8,0000.0,0008.46,0004.49,0004.00
2021-08-24 00:45:00,,0824.3,5.00,0.00,29.1,27.7,00.0,38.0,30.9,25.9,0000.0,0008.43,0004.50,0004.01
2021-08-24 00:46:00,,0824.3,5.00,0.00,29.0,26.0,00.0,38.0,30.5,26.0,0000.0,0009.18,0004.51,0004.01
2021-08-24 00:47:00,,0824.3,4.99,0.00,28.9,25.6,00.0,38.0,30.3,26.4,0000.0,0009.45,0004.51,0004.02
2021-08-24 00:48:00,,0824.4,5.00,0.00,28.8,26.0,00.0,37.9,30.4,26.5,0000.0,0009.48,0004.52,0004.01
2021-08-24 00:49:00,,0824.3,5.01,0.00,28.8,26.4,00.0,37.9,30.5,27.2,0000.0,0009.48,0004.52,0004.02
2021-08-24 00:50:00,,0824.4,5.00,0.00,28.8,26.9,00.0,37.9,30.6,27.0,0000.0,0009.73,0004.56,0004.03
2021-08-24 00:51:00,,0824.3,5.01,0.00,28.9,27.4,00.0,37.9,30.7,26.1,0000.0,0010.51,0004.58,0004.05
2021-08-24 00:52:00,,0824.4,5.00,0.00,28.9,27.7,00.0,37.9,30.8,26.1,0000.0,0010.86,0004.54,0004.08
2021-08-24 00:53:00,,0824.4,4.99,0.00,29.0,28.0,00.0,38.0,31.0,25.8,0000.0,0011.14,0004.57,0004.10
2021-08-24 00:54:00,,0824.4,5.00,0.00,29.1,27.7,00.0,38.0,30.9,25.7,0000.0,0012.06,0004.59,0004.14
2021-08-24 00:55:00,,0824.4,5.01,0.00,28.9,26.1,00.0,38.0,30.4,25.9,0000.0,0012.24,0004.63,0004.17
2021-08-24 00:56:00,,0824.4,4.99,0.00,28.8,25.5,00.0,37.9,30.2,26.5,0000.0,0012.09,0004.66,0004.20
2021-08-24 00:57:00,,0824.4,5.00,0.00,28.8,25.9,00.0,37.9,30.3,26.6,0000.0,0011.53,0004.73,0004.24
2021-08-24 00:58:00,,0824.4,5.00,0.00,28.7,26.3,00.0,37.9,30.4,26.8,0000.0,0011.66,0004.79,0004.28
2021-08-24 00:59:00,,0824.4,5.01,0.00,28.8,26.8,00.0,37.9,30.5,26.9,0000.0,0012.07,0004.82,0004.33
